Location: Newark
(9.1700°S, 36.6800°W)
Time: 02:12:48
(UTC+00:00)

LightSail 2 - Visible Passes

Search period start: 23 October 2019 00:00
Search period end: 02 November 2019 00:00
Orbit: 707 x 722 km, 24.0° (Epoch: 22 October)

Date Brightness Start Highest point End Pass type
(mag) Time Alt. Az. Time Alt. Az. Time Alt. Az.
23 Oct 7.5 05:42:54 15° S 05:42:54 15° S 05:45:22 10° SE visible
23 Oct 7.3 07:25:05 10° SW 07:28:55 20° SSE 07:32:44 10° ESE visible
24 Oct 7.4 06:27:50 11° SSW 06:31:04 18° S 06:34:31 10° SE visible
25 Oct 7.6 05:33:49 16° SSE 05:33:49 16° SSE 05:36:19 10° SE visible
25 Oct 6.9 07:15:01 10° SW 07:19:28 28° SSE 07:23:54 10° ESE visible
25 Oct 6.8 21:28:10 10° NNW 21:31:19 17° NNE 21:31:19 17° NNE visible
26 Oct 7.1 06:18:53 15° SSW 06:21:40 23° SSE 06:25:44 10° ESE visible
26 Oct 6.7 22:14:25 10° NW 22:16:53 26° NNW 22:16:53 26° NNW visible
27 Oct 7.5 05:25:02 18° SSE 05:25:02 18° SSE 05:27:30 10° SE visible
27 Oct 6.2 07:04:57 10° SW 07:09:53 42° SSE 07:14:47 10° E visible
27 Oct 6.1 21:17:12 10° NW 21:21:40 30° NNE 21:23:28 24° ENE visible
27 Oct 7.9 23:02:00 10° WNW 23:02:30 13° WNW 23:02:30 13° WNW visible
28 Oct 6.6 06:10:16 25° SSW 06:12:06 32° SSE 06:16:45 10° E visible
28 Oct 5.1 22:04:21 10° WNW 22:09:07 74° NNW 22:09:07 74° NNW visible
29 Oct 7.6 05:16:35 19° SE 05:16:35 19° SE 05:18:36 10° ESE visible
29 Oct 5.4 06:55:36 14° WSW 07:00:08 71° SSE 07:05:19 10° ENE visible
29 Oct 5.3 21:06:48 10° NW 21:11:48 54° NNE 21:15:43 17° E visible
29 Oct 7.2 22:52:30 10° W 22:54:45 24° WSW 22:54:45 24° WSW visible
30 Oct 5.7 06:02:01 50° S 06:02:25 51° SSE 06:07:28 10° E visible
30 Oct 5.5 21:54:35 10° WNW 21:59:40 60° SSW 22:01:18 40° SE visible
31 Oct 7.8 05:08:29 15° E 05:08:29 15° E 05:09:28 10° E visible
31 Oct 5.1 06:47:32 27° W 06:50:18 66° NNW 06:55:27 10° ENE visible
31 Oct 5.2 20:56:48 10° WNW 21:01:57 84° SSW 21:07:07 10° ESE visible
31 Oct 7.0 22:43:17 10° WSW 22:46:50 27° SW 22:46:50 27° SW visible
01 Nov 5.9 05:54:04 48° ENE 05:54:04 48° ENE 05:57:47 10° ENE visible
01 Nov 6.3 07:33:49 10° W 07:38:04 25° NNW 07:42:19 10° NNE visible
01 Nov 6.4 21:45:09 10° W 21:49:53 36° SSW 21:53:14 18° SE visible
